Wind_Speed
30 30 31 32 33 35 36 36 38 40 42 42 40 39 40 42 42 42 43 42 42 42 40 39 39 38 37 37 39 40 42 44 49 51 51 54 54 55 52 51 53 53 53
32 33 34 35 36 37 37 39 42 42 41 38 38 40 41 42 42 42 41 41 41 40 39 37 37 37 38 39 40 41 43 45 49 53 53 53 56 58 59 58 54 54 55
34 35 36 36 38 38 40 43 44 39 36 37 39 41 42 42 41 41 41 41 39 39 37 37 38 39 39 39 41 42 44 46 48 51 55 55 57 59 60 60 59 56 55
35 36 37 38 39 41 43 44 39 36 37 39 40 41 41 39 40 41 42 41 39 38 38 40 41 41 40 41 42 44 46 48 49 50 54 57 59 57 59 59 55 52 51
36 37 39 39 42 45 44 42 37 38 39 40 41 40 37 38 40 42 43 42 41 41 42 42 42 42 42 43 45 46 47 49 50 53 57 60 60 60 59 56 54 51 46
37 39 39 41 45 46 43 43 39 40 40 40 39 37 36 38 40 42 42 42 42 42 43 43 44 45 44 45 46 46 48 50 51 55 59 61 61 59 55 53 51 50 48
37 36 40 44 45 45 44 40 40 40 40 38 36 36 37 39 41 40 41 41 41 42 43 43 45 46 47 46 46 46 47 48 52 56 60 61 59 55 53 50 47 46 45
36 40 44 45 43 43 40 41 40 39 38 36 36 37 39 39 38 39 40 40 40 40 42 45 48 50 48 47 46 46 47 50 52 56 57 56 55 54 51 50 49 48 46
40 42 42 41 40 40 41 39 38 37 36 36 37 38 36 36 38 39 38 39 39 39 42 46 49 49 48 46 46 47 50 52 54 54 52 52 51 48 47 49 47 47 46
38 36 37 39 39 40 37 35 34 34 35 36 36 35 35 35 36 38 39 38 37 40 43 45 46 46 47 47 46 49 52 54 55 54 51 48 46 44 42 42 44 45 46
34 36 37 38 37 35 34 33 32 33 34 35 34 34 34 36 37 38 39 38 39 42 44 45 46 46 47 47 46 49 52 55 54 52 50 47 43 42 39 38 38 40 43
35 36 35 33 32 31 32 32 33 34 34 34 34 35 37 39 38 39 40 41 43 45 46 47 47 47 47 45 47 49 52 53 52 50 46 43 41 39 37 36 35 35 37
32 30 29 29 29 30 31 31 33 33 34 35 36 39 40 39 40 41 42 44 46 47 47 48 49 48 47 46 46 49 51 51 50 48 43 40 39 37 36 36 33 34 35
28 27 27 27 28 30 31 33 34 35 37 38 40 41 41 42 43 43 45 46 47 47 48 50 49 47 47 46 46 49 50 49 47 45 41 39 37 36 35 36 36 34 33
27 28 29 29 31 32 34 37 39 40 41 42 43 44 45 45 45 45 46 46 48 49 50 51 49 47 47 45 46 48 48 47 45 41 40 39 36 35 34 34 35 36 35
30 32 33 34 35 37 38 41 43 43 43 45 47 47 47 47 47 48 48 49 50 50 52 52 49 48 46 45 45 46 46 45 42 39 38 38 37 36 36 34 35 37 37
31 35 37 37 38 40 42 43 44 44 45 47 47 48 49 50 49 49 51 53 54 55 54 51 50 48 45 45 45 45 45 43 40 37 37 36 36 35 36 35 35 36 35
35 38 40 40 41 41 41 42 43 45 46 47 48 49 49 48 49 52 56 59 59 57 54 51 49 46 45 45 44 43 43 41 37 36 36 35 34 34 34 34 33 35 35
38 40 40 40 41 43 43 42 42 44 45 46 46 46 46 50 56 59 60 60 58 56 54 51 49 47 45 44 42 42 42 40 36 34 33 32 32 32 32 32 32 31 33
39 39 39 42 43 43 40 39 41 42 43 43 45 50 55 58 60 61 62 61 59 56 53 51 48 45 44 42 40 40 40 37 33 31 30 30 30 30 31 30 30 31 30
38 40 42 42 40 37 36 37 39 40 44 48 53 57 58 60 62 64 63 60 57 52 49 48 45 42 40 40 38 38 37 34 30 28 28 28 28 28 28 28 28 28 29
38 40 38 36 34 34 36 39 42 45 50 53 53 57 59 61 61 59 59 58 56 53 47 44 40 37 35 36 35 35 33 29 27 26 27 27 26 27 26 26 26 26 26
35 34 33 33 34 37 39 43 46 49 51 53 57 57 57 55 54 54 50 47 45 43 40 38 35 32 32 32 32 31 28 25 25 24 25 25 25 25 25 24 24 24 23
30 30 32 35 38 41 44 46 48 50 53 53 53 52 49 49 47 44 40 37 33 30 29 29 29 28 29 29 28 26 24 22 22 23 24 24 24 24 24 23 23 23 22
30 33 36 39 42 45 47 50 51 51 50 49 46 42 41 40 37 33 30 26 21 20 20 21 22 23 24 24 23 22 21 21 21 22 23 23 22 23 23 22 22 22 22
34 37 40 43 46 48 50 50 49 46 44 41 37 34 32 30 27 25 22 19 16 15 15 16 17 18 19 19 19 19 19 19 20 21 22 22 22 21 22 21 21 22 22
Wind_Direction
265 266 264 265 267 268 270 275 285 291 293 293 294 298 300 301 302 304 306 308 309 310 309 307 305 305 305 304 304 303 303 303 303 301 304 304 303 303 299 295 293 289 286
263 261 262 264 265 267 272 282 290 292 289 291 296 298 299 300 301 303 305 307 309 308 308 307 306 306 306 305 304 304 304 305 305 304 305 306 306 305 304 301 297 292 289
260 260 260 262 263 267 277 288 292 287 288 292 294 296 298 299 299 302 305 309 309 309 307 308 309 308 307 305 305 305 305 305 307 308 308 309 310 310 307 303 299 296 292
258 258 259 260 263 273 285 291 288 285 288 292 294 295 296 296 298 302 307 308 308 308 310 312 312 311 309 307 307 308 307 307 307 307 308 310 311 311 309 307 300 296 292
258 259 258 257 268 281 288 290 282 286 289 291 291 292 293 294 298 304 306 306 309 311 313 314 314 313 311 310 309 308 307 307 308 309 310 312 313 312 311 307 303 298 294
259 256 254 266 277 282 283 285 282 286 288 287 288 289 290 292 298 301 303 306 308 312 314 315 315 314 312 310 310 308 307 308 309 313 313 313 314 313 312 308 305 302 296
253 250 261 272 277 280 280 278 283 285 284 284 285 287 288 293 297 300 302 304 309 313 314 314 313 313 312 311 308 306 305 307 310 312 314 315 312 311 308 307 304 301 299
249 258 266 273 274 276 276 281 283 281 280 282 284 286 289 294 297 298 300 305 308 311 312 313 314 315 313 309 307 305 304 308 311 313 315 314 312 312 311 308 307 305 301
261 264 268 270 270 273 279 281 279 277 280 282 283 287 290 293 294 297 300 303 306 309 310 312 315 316 314 310 306 305 309 311 312 315 314 311 309 307 306 304 305 302 301
264 264 264 268 274 280 280 279 278 280 280 282 284 286 289 292 295 296 298 300 302 304 306 308 311 312 311 310 307 307 310 312 313 314 312 309 308 307 306 304 305 303 301
261 264 270 277 280 281 280 281 282 280 280 280 282 284 287 293 293 293 293 295 297 299 302 305 307 307 308 308 305 308 311 313 314 314 312 311 310 310 309 308 306 303 299
267 272 277 280 281 283 284 282 279 278 280 282 283 285 288 289 289 290 291 293 296 299 302 303 305 306 307 304 304 308 310 313 314 312 312 311 311 312 313 313 312 306 300
273 278 280 282 285 283 281 280 279 281 283 284 284 285 288 288 287 287 289 292 295 297 300 301 303 306 306 301 304 307 311 314 313 312 311 311 312 314 317 317 317 312 308
277 278 281 283 284 284 283 282 282 283 284 282 283 285 286 284 283 285 288 292 295 297 299 299 302 305 303 301 302 308 313 314 311 310 309 310 312 315 318 319 320 319 317
277 280 282 282 283 283 283 282 280 279 279 282 284 285 287 287 285 286 290 292 295 297 297 297 298 299 301 299 301 308 312 313 310 307 306 308 311 313 317 321 324 325 324
284 283 280 279 279 280 280 280 278 276 277 281 284 286 290 291 287 288 291 293 295 296 296 297 296 296 298 297 299 305 311 311 308 304 304 307 310 312 315 320 322 325 327
286 283 279 278 279 282 282 280 277 276 278 281 285 287 290 291 289 289 291 292 292 292 294 294 293 294 296 294 296 302 309 309 306 302 303 306 308 311 314 317 320 323 325
281 278 277 278 279 281 281 280 279 279 281 282 285 287 289 290 290 291 292 292 292 291 292 292 291 291 291 292 293 299 306 307 303 300 302 305 307 311 314 314 317 320 325
277 276 276 279 281 282 281 281 280 281 282 285 287 288 288 289 291 292 291 291 292 292 291 289 288 287 286 288 290 296 303 304 301 298 300 304 307 310 312 314 315 319 325
274 274 277 284 287 286 284 282 282 284 286 287 289 291 292 291 291 292 292 292 290 289 286 284 282 282 283 283 286 292 299 301 297 296 299 303 306 309 312 314 316 318 323
272 277 284 286 284 282 281 283 285 286 290 294 294 293 294 294 294 293 292 290 288 285 281 278 277 276 276 277 280 287 295 296 292 293 297 301 305 308 311 314 316 318 320
280 284 284 282 280 283 285 287 291 295 296 295 295 296 297 296 296 296 293 290 285 280 275 272 270 270 271 272 275 283 290 289 286 291 295 301 305 307 311 315 315 317 317
284 283 282 284 286 288 292 295 295 295 295 295 297 297 298 300 301 300 298 293 287 280 272 265 262 262 265 268 273 280 284 280 282 290 294 300 305 307 311 314 317 315 318
284 285 287 290 293 294 294 294 295 294 294 296 298 300 303 307 307 306 304 299 289 278 269 261 255 254 257 264 270 276 274 274 282 289 294 301 304 308 311 315 315 318 323
287 289 291 292 292 292 292 292 293 294 295 298 299 302 308 310 310 311 310 307 297 282 270 261 255 254 256 262 267 267 268 275 283 288 295 302 305 308 311 313 314 321 322
286 289 291 291 291 291 291 291 292 293 296 297 298 303 311 313 314 316 314 310 303 290 275 265 259 257 258 261 260 262 268 276 283 290 298 304 307 307 308 312 315 319 320
Height
3108 3109 3110 3111 3110 3110 3110 3110 3110 3108 3106 3103 3100 3097 3095 3093 3090 3088 3086 3083 3081 3077 3074 3070 3069 3065 3061 3057 3054 3050 3046 3041 3034 3034 3028 3022 3019 3013 3014 3011 3005 3002 3000
3101 3101 3102 3102 3103 3102 3102 3101 3100 3099 3097 3094 3092 3088 3086 3084 3082 3079 3077 3075 3072 3068 3065 3062 3060 3056 3053 3049 3045 3041 3037 3032 3025 3020 3017 3013 3006 2999 2994 2992 2991 2988 2983
3093 3094 3094 3094 3094 3094 3093 3092 3090 3089 3088 3086 3083 3080 3078 3075 3073 3070 3069 3066 3063 3060 3057 3054 3051 3048 3044 3040 3036 3032 3028 3023 3017 3011 3004 3000 2995 2988 2982 2977 2973 2972 2968
3084 3085 3085 3086 3086 3085 3083 3082 3081 3080 3078 3076 3074 3071 3069 3066 3065 3063 3060 3057 3054 3051 3049 3046 3042 3039 3035 3031 3026 3022 3017 3012 3007 3001 2995 2988 2983 2977 2969 2960 2958 2955 2952
3076 3076 3077 3077 3076 3075 3075 3073 3071 3071 3069 3067 3065 3062 3060 3059 3057 3054 3051 3049 3046 3044 3041 3037 3033 3029 3025 3021 3016 3012 3007 3002 2996 2990 2983 2976 2970 2963 2956 2948 2942 2937 2938
3068 3068 3068 3068 3066 3066 3066 3064 3063 3061 3059 3058 3056 3053 3051 3050 3047 3045 3042 3040 3038 3035 3032 3028 3024 3020 3016 3011 3006 3001 2997 2990 2985 2978 2971 2963 2958 2950 2943 2936 2930 2924 2920
3059 3059 3058 3058 3058 3057 3056 3054 3053 3051 3050 3047 3046 3045 3043 3041 3039 3037 3034 3032 3029 3026 3023 3019 3015 3010 3005 3000 2996 2992 2987 2982 2976 2968 2959 2953 2944 2939 2932 2925 2920 2914 2910
3050 3050 3050 3050 3049 3047 3046 3045 3043 3042 3041 3039 3037 3036 3035 3032 3029 3027 3024 3023 3020 3017 3014 3009 3005 3000 2995 2990 2986 2981 2978 2973 2966 2960 2950 2942 2934 2926 2920 2913 2908 2902 2899
3040 3041 3040 3039 3039 3037 3036 3035 3034 3032 3031 3031 3029 3028 3026 3024 3021 3019 3015 3012 3010 3008 3004 3000 2995 2990 2985 2980 2975 2970 2966 2961 2955 2948 2940 2932 2924 2919 2913 2903 2899 2892 2887
3029 3029 3029 3029 3029 3027 3026 3024 3023 3022 3021 3021 3020 3018 3016 3015 3011 3009 3006 3003 3001 2998 2994 2990 2985 2980 2975 2969 2964 2959 2954 2949 2942 2936 2931 2923 2916 2909 2904 2897 2889 2882 2875
3019 3019 3020 3020 3018 3017 3016 3015 3014 3012 3011 3011 3010 3009 3007 3005 3000 2998 2996 2992 2991 2988 2984 2980 2975 2971 2966 2960 2954 2949 2943 2936 2931 2924 2917 2911 2905 2900 2895 2889 2883 2875 2866
3009 3010 3010 3009 3008 3007 3007 3006 3005 3003 3002 3001 3000 2999 2996 2994 2991 2989 2986 2982 2980 2978 2974 2970 2966 2961 2956 2951 2945 2940 2933 2926 2919 2913 2907 2901 2895 2891 2886 2880 2875 2868 2860
2999 2999 2999 2999 2999 2998 2997 2996 2995 2994 2993 2992 2992 2990 2988 2984 2981 2978 2975 2972 2969 2966 2963 2959 2955 2951 2946 2941 2936 2930 2923 2916 2909 2903 2897 2893 2887 2882 2876 2870 2867 2859 2853
2990 2991 2991 2990 2990 2989 2987 2986 2984 2983 2983 2981 2981 2980 2976 2972 2970 2967 2964 2961 2958 2955 2952 2948 2944 2940 2935 2931 2926 2920 2913 2907 2900 2893 2888 2884 2879 2874 2869 2862 2856 2851 2846
2981 2980 2980 2979 2979 2978 2977 2976 2975 2974 2973 2970 2968 2968 2964 2961 2958 2955 2952 2950 2947 2943 2940 2937 2934 2929 2925 2921 2916 2911 2904 2898 2891 2885 2880 2875 2871 2866 2863 2856 2849 2843 2837
2971 2971 2970 2969 2969 2968 2967 2965 2965 2963 2960 2960 2957 2956 2952 2949 2945 2942 2939 2937 2933 2930 2926 2924 2920 2916 2913 2910 2906 2902 2896 2889 2883 2877 2873 2867 2863 2858 2854 2850 2843 2836 2830
2962 2962 2961 2960 2960 2957 2956 2955 2952 2950 2949 2948 2946 2943 2940 2937 2933 2929 2926 2923 2919 2915 2913 2911 2907 2904 2901 2898 2895 2891 2886 2881 2874 2869 2865 2861 2856 2851 2846 2842 2837 2831 2826
2952 2951 2951 2950 2948 2948 2945 2944 2941 2939 2937 2935 2933 2930 2927 2923 2919 2915 2911 2906 2903 2899 2899 2896 2893 2891 2889 2886 2883 2880 2876 2871 2866 2861 2857 2853 2848 2843 2839 2835 2831 2825 2818
2941 2940 2940 2940 2938 2935 2932 2930 2928 2926 2924 2922 2920 2916 2913 2909 2905 2900 2894 2889 2887 2884 2882 2881 2878 2877 2875 2873 2872 2870 2866 2862 2857 2853 2849 2845 2841 2837 2833 2829 2824 2820 2813
2930 2929 2927 2926 2924 2922 2919 2917 2916 2914 2912 2909 2906 2903 2898 2893 2889 2883 2877 2871 2868 2866 2865 2863 2862 2862 2862 2861 2860 2858 2856 2851 2848 2845 2842 2838 2835 2831 2826 2822 2818 2812 2809
2918 2916 2916 2913 2911 2910 2908 2906 2904 2902 2899 2895 2891 2886 2880 2874 2870 2865 2858 2853 2849 2847 2846 2845 2846 2847 2848 2848 2848 2847 2845 2842 2839 2837 2834 2831 2828 2825 2820 2816 2811 2807 2802
2906 2904 2903 2901 2900 2899 2897 2895 2892 2889 2885 2880 2875 2870 2863 2857 2849 2843 2838 2833 2829 2828 2828 2828 2831 2833 2835 2835 2836 2836 2835 2833 2831 2829 2827 2824 2821 2817 2814 2810 2806 2802 2798
2894 2893 2892 2891 2890 2888 2886 2883 2879 2875 2870 2865 2860 2854 2847 2840 2832 2825 2818 2813 2809 2808 2809 2812 2816 2819 2822 2823 2825 2825 2825 2824 2823 2821 2819 2817 2814 2810 2807 2804 2800 2797 2793
2884 2883 2882 2881 2879 2876 2873 2869 2865 2861 2856 2851 2846 2839 2832 2824 2817 2810 2804 2799 2795 2794 2796 2800 2803 2807 2810 2812 2814 2815 2815 2816 2815 2813 2811 2810 2807 2803 2800 2798 2795 2791 2787
2875 2874 2872 2869 2866 2863 2859 2855 2851 2847 2842 2838 2833 2827 2820 2813 2807 2801 2795 2791 2788 2788 2789 2791 2794 2797 2800 2803 2805 2806 2807 2807 2807 2805 2804 2802 2800 2797 2794 2792 2789 2786 2782
2865 2863 2860 2857 2854 2850 2846 2842 2838 2833 2830 2826 2821 2816 2811 2806 2800 2795 2790 2787 2785 2784 2785 2786 2788 2790 2793 2795 2797 2798 2800 2800 2799 2798 2796 2795 2793 2791 2788 2786 2783 2781 2778